This is the latest recevied weather packets stored in our database for station/object DL4ABR-6. If no packets are shown the sender has not sent any weather packets the latest 10 day(s).
| Time | Temp. | Humidity | Pressure | Rain* | Wind** | Luminosity | Snow |
|---|---|---|---|---|---|---|---|
| 1777786544 | 11.11° C | 91% | 1008.8 hPa | 0 mm | - | - | - |
| 1777785790 | 10.56° C | 91% | 1008.6 hPa | 0 mm | - | - | - |
| 1777784958 | 10.56° C | 91% | 1008.9 hPa | 0 mm | - | - | - |
| 1777784120 | 10° C | 92% | 1008.8 hPa | 0 mm | - | - | - |
| 1777783295 | 10° C | 91% | 1008.6 hPa | 0 mm | - | - | - |
| 1777782405 | 9.44° C | 91% | 1008.7 hPa | 0 mm | - | - | - |
| 1777781655 | 9.44° C | 90% | 1008.6 hPa | 0 mm | - | - | - |
| 1777780758 | 9.44° C | 90% | 1008.9 hPa | 0 mm | - | - | - |
| 1777779860 | 10° C | 89% | 1008.7 hPa | 0 mm | - | - | - |
| 1777779120 | 10° C | 89% | 1009.1 hPa | 0 mm | - | - | - |
| 1777778335 | 10° C | 88% | 1008.9 hPa | 0 mm | - | - | - |
| 1777777455 | 10.56° C | 87% | 1008.9 hPa | 0 mm | - | - | - |
| 1777776610 | 11.11° C | 86% | 1009 hPa | 0 mm | - | - | - |
| 1777775755 | 11.11° C | 86% | 1009.1 hPa | 0 mm | - | - | - |
| 1777775015 | 11.11° C | 85% | 1009 hPa | 0 mm | - | - | - |
| 1777774190 | 11.67° C | 84% | 1009.1 hPa | 0 mm | - | - | - |
| 1777773400 | 11.67° C | 83% | 1009.3 hPa | 0 mm | - | - | - |
| 1777772664 | 12.22° C | 81% | 1009.4 hPa | 0 mm | - | - | - |
| 1777771834 | 12.78° C | 80% | 1009.4 hPa | 0 mm | - | - | - |
| 1777771090 | 13.33° C | 78% | 1009.6 hPa | 0 mm | - | - | - |
| 1777770320 | 12.78° C | 77% | 1009.8 hPa | 0 mm | - | - | - |
| 1777769464 | 13.33° C | 76% | 1009.9 hPa | 0 mm | - | - | - |
| 1777768570 | 12.78° C | 75% | 1009.9 hPa | 0 mm | - | - | - |
| 1777767720 | 12.78° C | 77% | 1009.9 hPa | 0 mm | - | - | - |
| 1777766855 | 12.78° C | 79% | 1009.9 hPa | 0 mm | - | - | - |
* Rain since midnight (hover to see other rain measurements)
** Current wind speed in m/s (hover to see current wind gust speed)